Time,TemperatureF,DewpointF,PressureIn,WindDirection,WindDirectionDegrees,WindSpeedMPH,WindSpeedGustMPH,Humidity,HourlyPrecipIn,Conditions,Clouds,dailyrainin,SoftwareType,DateUTC
2013-02-01 00:04:00,29.6,16.0,29.82,WSW,255,0.0,3.0,56,0.00,,,0.35,weatherlink.com 1.10,2013-02-01 05:04:00,
2013-02-01 00:19:00,29.1,17.0,29.82,West,268,0.0,5.0,61,0.00,,,0.00,weatherlink.com 1.10,2013-02-01 05:19:00,
2013-02-01 00:34:00,28.9,17.0,29.82,West,268,0.0,0.0,62,0.00,,,0.00,weatherlink.com 1.10,2013-02-01 05:34:00,
2013-02-01 00:49:00,28.5,18.0,29.81,WSW,255,0.0,0.0,64,0.00,,,0.00,weatherlink.com 1.10,2013-02-01 05:49:00,
2013-02-01 01:04:00,27.9,19.0,29.81,WSW,254,0.0,0.0,69,0.00,,,0.00,weatherlink.com 1.10,2013-02-01 06:04:00,
2013-02-01 01:19:00,27.6,18.0,29.81,SSW,196,1.0,2.0,66,0.00,,,0.00,weatherlink.com 1.10,2013-02-01 06:19:00,
2013-02-01 01:36:00,28.1,19.0,29.81,SSW,200,0.0,1.0,68,0.00,,,0.00,weatherlink.com 1.10,2013-02-01 06:36:00,
2013-02-01 01:50:00,28.3,20.0,29.81,South,175,0.0,0.0,70,0.00,,,0.00,weatherlink.com 1.10,2013-02-01 06:50:00,
2013-02-01 02:05:00,28.4,20.0,29.80,South,175,0.0,0.0,70,0.00,,,0.00,weatherlink.com 1.10,2013-02-01 07:05:00,
2013-02-01 02:20:00,28.5,20.0,29.80,South,175,0.0,0.0,71,0.00,,,0.00,weatherlink.com 1.10,2013-02-01 07:20:00,
2013-02-01 02:35:00,28.8,20.0,29.80,ENE,75,2.0,2.0,70,0.00,,,0.00,weatherlink.com 1.10,2013-02-01 07:35:00,
2013-02-01 02:50:00,29.1,20.0,29.79,NE,44,2.0,2.0,69,0.00,,,0.00,weatherlink.com 1.10,2013-02-01 07:50:00,
2013-02-01 03:05:00,29.4,19.0,29.79,North,9,0.0,3.0,66,0.00,,,0.00,weatherlink.com 1.10,2013-02-01 08:05:00,
2013-02-01 03:20:00,29.6,19.0,29.78,NNE,20,0.0,0.0,66,0.00,,,0.00,weatherlink.com 1.10,2013-02-01 08:20:00,
2013-02-01 03:35:00,29.8,19.0,29.78,NNE,18,0.0,5.0,64,0.00,,,0.00,weatherlink.com 1.10,2013-02-01 08:35:00,
2013-02-01 03:50:00,29.9,19.0,29.78,NNE,27,1.0,3.0,65,0.00,,,0.00,weatherlink.com 1.10,2013-02-01 08:50:00,
2013-02-01 04:05:00,30.0,20.0,29.78,NNW,339,1.0,4.0,67,0.00,,,0.00,weatherlink.com 1.10,2013-02-01 09:05:00,
2013-02-01 04:20:00,30.1,21.0,29.79,NW,321,2.0,7.0,70,0.00,,,0.00,weatherlink.com 1.10,2013-02-01 09:20:00,
2013-02-01 04:35:00,29.4,23.0,29.80,NW,316,7.0,8.0,76,0.00,,,0.00,weatherlink.com 1.10,2013-02-01 09:35:00,
2013-02-01 04:50:00,28.4,23.0,29.81,NW,318,7.0,10.0,81,0.00,,,0.00,weatherlink.com 1.10,2013-02-01 09:50:00,
2013-02-01 05:05:00,27.6,25.0,29.83,West,260,5.0,11.0,88,0.00,,,0.00,weatherlink.com 1.10,2013-02-01 10:05:00,
2013-02-01 05:20:00,26.5,23.0,29.84,NW,310,6.0,21.0,87,0.00,,,0.00,weatherlink.com 1.10,2013-02-01 10:20:00,
2013-02-01 05:35:00,26.5,22.0,29.86,NW,319,6.0,13.0,84,0.00,,,0.00,weatherlink.com 1.10,2013-02-01 10:35:00,
2013-02-01 05:50:00,26.1,23.0,29.86,NW,306,2.0,8.0,87,0.00,,,0.00,weatherlink.com 1.10,2013-02-01 10:50:00,
2013-02-01 06:06:00,26.0,22.0,29.86,NW,314,0.0,12.0,83,0.00,,,0.00,weatherlink.com 1.10,2013-02-01 11:06:00,
2013-02-01 06:20:00,26.3,20.0,29.87,WNW,298,4.0,15.0,78,0.00,,,0.00,weatherlink.com 1.10,2013-02-01 11:20:00,
2013-02-01 06:35:00,26.5,18.0,29.88,WNW,300,4.0,14.0,69,0.00,,,0.00,weatherlink.com 1.10,2013-02-01 11:35:00,
2013-02-01 06:50:00,26.3,17.0,29.89,WNW,297,1.0,14.0,68,0.00,,,0.00,weatherlink.com 1.10,2013-02-01 11:50:00,
2013-02-01 07:05:00,26.1,16.0,29.90,NW,322,3.0,18.0,65,0.00,,,0.00,weatherlink.com 1.10,2013-02-01 12:05:00,
2013-02-01 07:20:00,25.8,15.0,29.92,WNW,296,7.0,20.0,64,0.00,,,0.00,weatherlink.com 1.10,2013-02-01 12:20:00,
2013-02-01 07:35:00,25.4,13.0,29.94,West,277,10.0,23.0,60,0.00,,,0.00,weatherlink.com 1.10,2013-02-01 12:35:00,
2013-02-01 07:51:00,24.8,11.0,29.95,NW,309,11.0,25.0,56,0.00,,,0.00,weatherlink.com 1.10,2013-02-01 12:51:00,
2013-02-01 08:06:00,24.8,11.0,29.97,NW,308,3.0,27.0,55,0.00,,,0.00,weatherlink.com 1.10,2013-02-01 13:06:00,
2013-02-01 08:21:00,24.1,13.0,30.00,NNW,347,12.0,22.0,62,0.00,,,0.00,weatherlink.com 1.10,2013-02-01 13:21:00,
2013-02-01 08:36:00,23.8,14.0,30.02,WNW,282,8.0,17.0,67,0.00,,,0.00,weatherlink.com 1.10,2013-02-01 13:36:00,
2013-02-01 08:51:00,23.7,11.0,30.02,NNW,328,7.0,23.0,59,0.00,,,0.00,weatherlink.com 1.10,2013-02-01 13:51:00,
2013-02-01 09:06:00,23.8,10.0,30.04,NW,313,8.0,21.0,56,0.00,,,0.00,weatherlink.com 1.10,2013-02-01 14:06:00,
2013-02-01 09:21:00,23.7,8.0,30.05,West,274,10.0,26.0,52,0.00,,,0.00,weatherlink.com 1.10,2013-02-01 14:21:00,
2013-02-01 09:36:00,23.4,6.0,30.05,SSW,206,18.0,30.0,48,0.00,,,0.00,weatherlink.com 1.10,2013-02-01 14:36:00,
2013-02-01 09:51:00,23.9,8.0,30.06,WNW,294,9.0,27.0,50,0.00,,,0.00,weatherlink.com 1.10,2013-02-01 14:51:00,
2013-02-01 10:06:00,24.5,9.0,30.06,NNW,332,10.0,17.0,51,0.00,,,0.00,weatherlink.com 1.10,2013-02-01 15:06:00,
2013-02-01 10:21:00,23.6,6.0,30.07,NW,306,13.0,31.0,48,0.01,,,0.01,weatherlink.com 1.10,2013-02-01 15:21:00,
2013-02-01 10:36:00,23.7,7.0,30.09,WNW,301,6.0,22.0,48,0.01,,,0.01,weatherlink.com 1.10,2013-02-01 15:36:00,
2013-02-01 10:51:00,24.8,8.0,30.10,West,281,13.0,27.0,49,0.01,,,0.01,weatherlink.com 1.10,2013-02-01 15:51:00,
2013-02-01 11:06:00,24.0,7.0,30.11,NW,325,14.0,19.0,49,0.01,,,0.01,weatherlink.com 1.10,2013-02-01 16:06:00,
2013-02-01 11:21:00,23.7,6.0,30.12,NW,304,11.0,20.0,47,0.00,,,0.01,weatherlink.com 1.10,2013-02-01 16:21:00,
2013-02-01 11:36:00,23.6,6.0,30.13,NW,308,15.0,23.0,48,0.00,,,0.01,weatherlink.com 1.10,2013-02-01 16:36:00,
2013-02-01 11:51:00,23.3,6.0,30.13,NW,316,10.0,22.0,47,0.00,,,0.01,weatherlink.com 1.10,2013-02-01 16:51:00,
2013-02-01 12:06:00,24.0,6.0,30.12,NW,319,9.0,21.0,47,0.00,,,0.01,weatherlink.com 1.10,2013-02-01 17:06:00,
2013-02-01 12:21:00,24.9,6.0,30.13,NW,307,7.0,21.0,45,0.00,,,0.01,weatherlink.com 1.10,2013-02-01 17:21:00,
2013-02-01 12:36:00,23.9,4.0,30.13,NW,323,12.0,20.0,43,0.00,,,0.01,weatherlink.com 1.10,2013-02-01 17:36:00,
2013-02-01 12:51:00,23.9,5.0,30.14,NNE,26,5.0,25.0,44,0.00,,,0.01,weatherlink.com 1.10,2013-02-01 17:51:00,
2013-02-01 13:06:00,25.1,6.0,30.14,NNW,337,4.0,21.0,44,0.00,,,0.01,weatherlink.com 1.10,2013-02-01 18:06:00,
2013-02-01 13:21:00,24.7,5.0,30.14,NNW,341,10.0,21.0,43,0.00,,,0.01,weatherlink.com 1.10,2013-02-01 18:21:00,
2013-02-01 13:36:00,24.1,5.0,30.15,NW,318,9.0,23.0,45,0.00,,,0.01,weatherlink.com 1.10,2013-02-01 18:36:00,
2013-02-01 13:51:00,24.3,6.0,30.15,WNW,294,4.0,19.0,45,0.00,,,0.01,weatherlink.com 1.10,2013-02-01 18:51:00,
2013-02-01 14:06:00,25.6,6.0,30.15,NNW,337,8.0,18.0,44,0.00,,,0.01,weatherlink.com 1.10,2013-02-01 19:06:00,
2013-02-01 14:21:00,23.5,4.0,30.17,WNW,293,13.0,27.0,43,0.00,,,0.01,weatherlink.com 1.10,2013-02-01 19:21:00,
2013-02-01 14:36:00,24.1,4.0,30.16,NW,315,15.0,23.0,42,0.00,,,0.01,weatherlink.com 1.10,2013-02-01 19:36:00,
2013-02-01 14:51:00,24.4,5.0,30.17,West,274,12.0,22.0,43,0.00,,,0.01,weatherlink.com 1.10,2013-02-01 19:51:00,
2013-02-01 15:07:00,24.1,4.0,30.17,NW,324,10.0,22.0,43,0.00,,,0.01,weatherlink.com 1.10,2013-02-01 20:07:00,
2013-02-01 15:22:00,24.2,5.0,30.18,NW,309,14.0,20.0,44,0.00,,,0.01,weatherlink.com 1.10,2013-02-01 20:22:00,
2013-02-01 15:37:00,23.2,4.0,30.19,NW,314,14.0,19.0,43,0.00,,,0.01,weatherlink.com 1.10,2013-02-01 20:37:00,
2013-02-01 15:52:00,23.2,4.0,30.20,NW,308,8.0,19.0,43,0.00,,,0.01,weatherlink.com 1.10,2013-02-01 20:52:00,
2013-02-01 16:08:00,23.3,4.0,30.20,NW,308,7.0,25.0,43,0.00,,,0.01,weatherlink.com 1.10,2013-02-01 21:08:00,
2013-02-01 16:22:00,22.9,3.0,30.21,NW,320,11.0,20.0,42,0.00,,,0.01,weatherlink.com 1.10,2013-02-01 21:22:00,
2013-02-01 16:37:00,22.9,4.0,30.22,West,278,5.0,15.0,44,0.00,,,0.01,weatherlink.com 1.10,2013-02-01 21:37:00,
2013-02-01 16:52:00,22.8,4.0,30.23,West,261,5.0,17.0,44,0.00,,,0.01,weatherlink.com 1.10,2013-02-01 21:52:00,
2013-02-01 17:07:00,22.0,3.0,30.23,WNW,302,5.0,21.0,44,0.00,,,0.01,weatherlink.com 1.10,2013-02-01 22:07:00,
2013-02-01 17:22:00,21.7,4.0,30.24,NW,311,12.0,16.0,46,0.00,,,0.01,weatherlink.com 1.10,2013-02-01 22:22:00,
2013-02-01 17:37:00,21.3,4.0,30.25,WNW,300,1.0,11.0,47,0.00,,,0.01,weatherlink.com 1.10,2013-02-01 22:37:00,
2013-02-01 17:52:00,21.2,5.0,30.26,WNW,295,2.0,14.0,49,0.00,,,0.01,weatherlink.com 1.10,2013-02-01 22:52:00,
2013-02-01 18:07:00,20.9,4.0,30.26,WNW,291,5.0,14.0,49,0.00,,,0.01,weatherlink.com 1.10,2013-02-01 23:07:00,
2013-02-01 18:22:00,20.8,4.0,30.27,WNW,301,9.0,15.0,49,0.00,,,0.01,weatherlink.com 1.10,2013-02-01 23:22:00,
2013-02-01 18:37:00,20.5,4.0,30.27,NW,306,5.0,14.0,49,0.00,,,0.01,weatherlink.com 1.10,2013-02-01 23:37:00,
2013-02-01 18:52:00,20.2,4.0,30.28,NW,314,9.0,15.0,49,0.00,,,0.01,weatherlink.com 1.10,2013-02-01 23:52:00,
2013-02-01 19:07:00,19.9,3.0,30.29,West,281,5.0,14.0,48,0.00,,,0.01,weatherlink.com 1.10,2013-02-02 00:07:00,
2013-02-01 19:22:00,19.7,4.0,30.30,NW,309,7.0,13.0,50,0.00,,,0.01,weatherlink.com 1.10,2013-02-02 00:22:00,
2013-02-01 19:37:00,19.6,4.0,30.30,WNW,287,3.0,11.0,50,0.00,,,0.01,weatherlink.com 1.10,2013-02-02 00:37:00,
2013-02-01 19:52:00,19.3,4.0,30.31,NW,314,6.0,16.0,51,0.00,,,0.01,weatherlink.com 1.10,2013-02-02 00:52:00,
2013-02-01 20:07:00,19.1,4.0,30.31,NNW,328,2.0,10.0,52,0.00,,,0.01,weatherlink.com 1.10,2013-02-02 01:07:00,
2013-02-01 20:22:00,18.9,4.0,30.32,West,277,4.0,11.0,52,0.00,,,0.01,weatherlink.com 1.10,2013-02-02 01:22:00,
2013-02-01 20:37:00,18.6,3.0,30.32,WNW,293,5.0,12.0,51,0.00,,,0.01,weatherlink.com 1.10,2013-02-02 01:37:00,
2013-02-01 20:52:00,18.5,3.0,30.32,NW,316,4.0,10.0,52,0.00,,,0.01,weatherlink.com 1.10,2013-02-02 01:52:00,
2013-02-01 21:07:00,18.3,3.0,30.33,West,267,6.0,10.0,52,0.00,,,0.01,weatherlink.com 1.10,2013-02-02 02:07:00,
2013-02-01 21:23:00,18.2,4.0,30.33,NW,312,5.0,9.0,53,0.00,,,0.01,weatherlink.com 1.10,2013-02-02 02:23:00,
2013-02-01 21:38:00,18.2,4.0,30.33,NW,309,9.0,-999.0,53,-99.99,,,0.01,weatherlink.com 1.10,2013-02-02 02:38:00,
2013-02-01 21:53:00,18.1,4.0,30.34,NW,326,7.0,11.0,54,0.00,,,0.01,weatherlink.com 1.10,2013-02-02 02:53:00,
2013-02-01 22:08:00,18.0,4.0,30.34,NW,305,7.0,13.0,54,0.00,,,0.01,weatherlink.com 1.10,2013-02-02 03:08:00,
2013-02-01 22:23:00,18.0,4.0,30.34,WNW,293,3.0,10.0,55,0.00,,,0.01,weatherlink.com 1.10,2013-02-02 03:23:00,
2013-02-01 22:38:00,17.8,4.0,30.34,NW,317,1.0,6.0,55,0.00,,,0.01,weatherlink.com 1.10,2013-02-02 03:38:00,
2013-02-01 22:53:00,17.4,4.0,30.34,NW,318,2.0,7.0,57,0.00,,,0.01,weatherlink.com 1.10,2013-02-02 03:53:00,
2013-02-01 23:08:00,17.3,4.0,30.35,NW,310,2.0,5.0,57,0.00,,,0.01,weatherlink.com 1.10,2013-02-02 04:08:00,
2013-02-01 23:24:00,17.2,4.0,30.35,WNW,289,2.0,5.0,57,0.00,,,0.01,weatherlink.com 1.10,2013-02-02 04:24:00,
2013-02-01 23:39:00,17.3,4.0,30.36,NW,304,3.0,8.0,57,0.00,,,0.01,weatherlink.com 1.10,2013-02-02 04:39:00,
2013-02-01 23:54:00,17.1,5.0,30.36,WNW,293,1.0,5.0,58,0.00,,,0.01,weatherlink.com 1.10,2013-02-02 04:54:00,